Retour au catalogue

METEOR 2-11 DEB

ActifPO
NORAD 42454·DEBRIS·🇷🇺 Russia

Lancé Jul 5, 1984 depuis Plesetsk Cosmodrome

Loading…

Prochains Passages (prochaines 24 heures)

TLE

VieillissantSource: Space-Track

Époque: Sep 3, 2026, 21:23 UTC

1 42454U 84072Q   26246.89165108  .00001393  00000-0  95294-3 0  9996
2 42454  82.5107 298.2084 0020046 105.6041 254.7341 13.98960599573679

Suivez METEOR 2-11 DEB en temps réel avec AllMySat

Download on the App Store